When you browse on this site, cookies collect data to enhance your experience and personalize the content and advertising you see.
Visit our Privacy Policy to learn more. By continuing to use the site, you agree to this use of cookies and data.
  • In Portugal
  • List of Countries
  • For 7 days
  • Water Temperature
  • Weather Map
  • Weather Widgets
  • user-avatar
    Login

    Hourly Weather Darwin

    Today, 18 November, Monday

    Time Temperature Precipitation Wind Pressure Humidity
    00:00 +30°C° 0 mm 2 mps 758 mmHg 77%
    01:00 +30°C° 0.2 mm 2 mps 758 mmHg 77%
    02:00 +29°C° 0.2 mm 2 mps 757 mmHg 78%
    03:00 +29°C° 0.2 mm 2 mps 757 mmHg 79%
    04:00 +28°C° 0 mm 2 mps 757 mmHg 79%
    05:00 +28°C° 0 mm 2 mps 758 mmHg 79%
    06:00 +28°C° 0 mm 2 mps 758 mmHg 79%
    07:00 +31°C° 0 mm 1 mps 758 mmHg 69%
    08:00 +34°C° 0 mm 1 mps 758 mmHg 58%
    09:00 +34°C° 0 mm 0 mps 759 mmHg 47%
    10:00 +39°C° 0 mm 1 mps 758 mmHg 41%
    11:00 +40°C° 0 mm 2 mps 758 mmHg 35%
    12:00 +41°C° 0 mm 2 mps 757 mmHg 29%
    13:00 +40°C° 0 mm 3 mps 757 mmHg 34%
    14:00 +38°C° 0 mm 3 mps 756 mmHg 39%
    15:00 +37°C° 0 mm 4 mps 755 mmHg 45%
    16:00 +36°C° 0 mm 4 mps 755 mmHg 48%
    17:00 +35°C° 0 mm 4 mps 755 mmHg 52%
    18:00 +34°C° 0 mm 4 mps 755 mmHg 56%
    19:00 +33°C° 0 mm 4 mps 756 mmHg 61%
    20:00 +33°C° 0 mm 3 mps 756 mmHg 66%
    21:00 +31°C° 0 mm 3 mps 757 mmHg 72%
    22:00 +30°C° 0 mm 3 mps 757 mmHg 73%
    23:00 +30°C° 0 mm 2 mps 757 mmHg 74%

    Tomorrow, 19 November, Tuesday

    Time Temperature Precipitation Wind Pressure Humidity
    00:00 +30°C° 0 mm 2 mps 757 mmHg 75%
    01:00 +29°C° 0.4 mm 2 mps 757 mmHg 78%
    02:00 +29°C° 0.4 mm 1 mps 756 mmHg 81%
    03:00 +28°C° 0.4 mm 1 mps 756 mmHg 85%
    04:00 +28°C° 0 mm 1 mps 756 mmHg 83%
    05:00 +29°C° 0 mm 1 mps 756 mmHg 82%
    06:00 +29°C° 0 mm 1 mps 757 mmHg 80%
    07:00 +31°C° 0 mm 1 mps 757 mmHg 70%
    08:00 +34°C° 0 mm 1 mps 757 mmHg 60%
    09:00 +36°C° 0 mm 1 mps 757 mmHg 50%
    10:00 +39°C° 0 mm 1 mps 757 mmHg 44%
    11:00 +40°C° 0 mm 2 mps 756 mmHg 38%
    12:00 +43°C° 0 mm 3 mps 756 mmHg 33%
    13:00 +40°C° 0 mm 3 mps 755 mmHg 39%
    14:00 +38°C° 0 mm 4 mps 755 mmHg 46%
    15:00 +36°C° 0 mm 4 mps 754 mmHg 52%
    16:00 +35°C° 0 mm 5 mps 754 mmHg 56%
    17:00 +34°C° 0 mm 6 mps 755 mmHg 60%
    18:00 +34°C° 0 mm 6 mps 755 mmHg 64%
    19:00 +33°C° 0 mm 5 mps 755 mmHg 66%
    20:00 +32°C° 0 mm 5 mps 756 mmHg 69%
    21:00 +32°C° 0 mm 4 mps 756 mmHg 72%
    22:00 +30°C° 0 mm 3 mps 756 mmHg 74%
    23:00 +30°C° 0 mm 3 mps 756 mmHg 75%

    Day after tomorrow, 20 November, Wednesday

    Time Temperature Precipitation Wind Pressure Humidity
    00:00 +30°C° 0 mm 2 mps 756 mmHg 77%
    01:00 +30°C° 0 mm 2 mps 756 mmHg 77%
    02:00 +29°C° 0 mm 2 mps 756 mmHg 77%
    03:00 +29°C° 0 mm 2 mps 755 mmHg 76%
    04:00 +29°C° 0 mm 2 mps 756 mmHg 77%
    05:00 +29°C° 0 mm 2 mps 756 mmHg 77%
    06:00 +29°C° 0 mm 2 mps 756 mmHg 78%
    07:00 +31°C° 0 mm 2 mps 756 mmHg 69%
    08:00 +34°C° 0 mm 2 mps 757 mmHg 60%
    09:00 +36°C° 0 mm 2 mps 757 mmHg 51%
    10:00 +37°C° 0 mm 3 mps 757 mmHg 47%
    11:00 +38°C° 0 mm 3 mps 757 mmHg 43%
    12:00 +41°C° 0 mm 4 mps 756 mmHg 39%
    13:00 +38°C° 0 mm 4 mps 756 mmHg 45%
    14:00 +37°C° 0 mm 5 mps 755 mmHg 50%
    15:00 +36°C° 0 mm 6 mps 754 mmHg 56%
    16:00 +35°C° 0.6 mm 6 mps 755 mmHg 59%
    17:00 +34°C° 0.6 mm 5 mps 755 mmHg 62%
    18:00 +33°C° 0.6 mm 5 mps 755 mmHg 65%
    19:00 +32°C° 0 mm 5 mps 755 mmHg 69%
    20:00 +30°C° 0 mm 4 mps 756 mmHg 73%
    21:00 +30°C° 0 mm 3 mps 756 mmHg 76%
    22:00 +30°C° 0 mm 3 mps 756 mmHg 78%
    23:00 +29°C° 0 mm 2 mps 756 mmHg 79%

    21 November, Thursday

    Time Temperature Precipitation Wind Pressure Humidity
    00:00 +29°C° 0 mm 2 mps 756 mmHg 80%
    01:00 +29°C° 0 mm 2 mps 756 mmHg 81%
    02:00 +29°C° 0 mm 2 mps 756 mmHg 81%
    03:00 +28°C° 0 mm 2 mps 755 mmHg 81%
    04:00 +28°C° 0 mm 2 mps 756 mmHg 82%
    05:00 +28°C° 0 mm 1 mps 756 mmHg 83%
    06:00 +28°C° 0 mm 1 mps 757 mmHg 84%
    07:00 +30°C° 0 mm 1 mps 757 mmHg 74%
    08:00 +33°C° 0 mm 1 mps 757 mmHg 64%
    09:00 +35°C° 0 mm 1 mps 758 mmHg 53%
    10:00 +36°C° 0 mm 1 mps 757 mmHg 50%
    11:00 +38°C° 0 mm 2 mps 757 mmHg 46%
    12:00 +39°C° 0 mm 3 mps 757 mmHg 42%
    13:00 +38°C° 0 mm 3 mps 756 mmHg 46%
    14:00 +37°C° 0 mm 3 mps 755 mmHg 51%
    15:00 +35°C° 0 mm 3 mps 755 mmHg 55%
    16:00 +35°C° 0 mm 4 mps 755 mmHg 58%
    17:00 +34°C° 0 mm 4 mps 755 mmHg 60%
    18:00 +33°C° 0 mm 5 mps 755 mmHg 63%
    19:00 +33°C° 0 mm 4 mps 755 mmHg 67%
    20:00 +32°C° 0 mm 4 mps 756 mmHg 70%
    21:00 +30°C° 0 mm 4 mps 757 mmHg 74%
    22:00 +30°C° 0 mm 3 mps 757 mmHg 75%
    23:00 +30°C° 0 mm 2 mps 757 mmHg 77%

    22 November, Friday

    Time Temperature Precipitation Wind Pressure Humidity
    00:00 +30°C° 0 mm 2 mps 757 mmHg 78%
    01:00 +29°C° 0 mm 2 mps 757 mmHg 79%
    02:00 +29°C° 0 mm 2 mps 756 mmHg 79%
    03:00 +29°C° 0 mm 2 mps 756 mmHg 80%
    04:00 +28°C° 0 mm 1 mps 756 mmHg 81%
    05:00 +28°C° 0 mm 1 mps 756 mmHg 82%
    06:00 +28°C° 0 mm 1 mps 757 mmHg 83%
    07:00 +30°C° 0 mm 1 mps 757 mmHg 71%
    08:00 +33°C° 0 mm 1 mps 757 mmHg 60%
    09:00 +35°C° 0 mm 1 mps 758 mmHg 48%
    10:00 +38°C° 0 mm 2 mps 757 mmHg 43%
    11:00 +39°C° 0 mm 3 mps 757 mmHg 38%
    12:00 +40°C° 0 mm 3 mps 757 mmHg 33%
    13:00 +41°C° 0 mm 4 mps 756 mmHg 36%
    14:00 +40°C° 0 mm 4 mps 755 mmHg 39%
    15:00 +39°C° 0 mm 5 mps 755 mmHg 42%
    16:00 +36°C° 0 mm 5 mps 755 mmHg 47%
    17:00 +35°C° 0 mm 5 mps 755 mmHg 53%
    18:00 +34°C° 0 mm 5 mps 755 mmHg 58%
    19:00 +33°C° 0 mm 5 mps 755 mmHg 62%
    20:00 +32°C° 0 mm 4 mps 756 mmHg 66%
    21:00 +32°C° 0 mm 4 mps 757 mmHg 70%
    22:00 +30°C° 0 mm 3 mps 757 mmHg 71%
    23:00 +30°C° 0 mm 3 mps 757 mmHg 73%

    23 November, Saturday

    Time Temperature Precipitation Wind Pressure Humidity
    00:00 +30°C° 0 mm 2 mps 757 mmHg 74%
    01:00 +30°C° 0 mm 2 mps 757 mmHg 74%
    02:00 +29°C° 0 mm 2 mps 756 mmHg 74%
    03:00 +29°C° 0 mm 2 mps 756 mmHg 74%
    04:00 +29°C° 0 mm 2 mps 756 mmHg 75%
    05:00 +29°C° 0 mm 2 mps 756 mmHg 75%
    06:00 +29°C° 0 mm 2 mps 757 mmHg 76%
    07:00 +31°C° 0 mm 2 mps 757 mmHg 67%
    08:00 +34°C° 0 mm 2 mps 757 mmHg 58%
    09:00 +36°C° 0 mm 2 mps 757 mmHg 49%
    10:00 +37°C° 0 mm 3 mps 757 mmHg 45%
    11:00 +39°C° 0 mm 3 mps 756 mmHg 41%
    12:00 +41°C° 0 mm 4 mps 756 mmHg 36%
    13:00 +40°C° 0 mm 5 mps 755 mmHg 39%
    14:00 +39°C° 0 mm 5 mps 754 mmHg 42%
    15:00 +38°C° 0 mm 6 mps 754 mmHg 45%
    16:00 +36°C° 0 mm 6 mps 754 mmHg 49%
    17:00 +35°C° 0 mm 5 mps 754 mmHg 53%
    18:00 +34°C° 0 mm 5 mps 755 mmHg 58%
    19:00 +33°C° 0.6 mm 5 mps 755 mmHg 63%
    20:00 +32°C° 0.6 mm 4 mps 756 mmHg 68%
    21:00 +30°C° 0.6 mm 3 mps 756 mmHg 73%
    22:00 +30°C° 0 mm 3 mps 756 mmHg 75%
    23:00 +30°C° 0 mm 3 mps 756 mmHg 77%
    Show more